Weather History for Santa Ana, CA

Change the Weather History Date:

Saturday, December 7, 2013

  Actual Average Record
Temperature  
Mean Temperature 54 °F 57 °F  
Max Temperature 59 °F 66 °F 81 °F (2001)
Min Temperature 48 °F 47 °F 38 °F (2011)
Degree Days  
Heating Degree Days 11 8  
Month to date heating degree days 52 54  
Since 1 July heating degree days 125 207  
Cooling Degree Days 0 0  
Month to date cooling degree days 0 0  
Year to date cooling degree days 1157 876  
Growing Degree Days 4 (Base 50)    
Moisture  
Dew Point 42 °F    
Average Humidity 74    
Maximum Humidity 89    
Minimum Humidity 59    
Precipitation  
Precipitation 0.14 in 0.05 in 1.26 in (2009)
Month to date precipitation 0.14 0.27  
Year to date precipitation 2.87 11.52  
Since 1 July precipitation 0.90 2.56  
Snow  
Snow 0.00 in - - ()
Month to date snowfall 0.0  
Year to date snowfall 0.0  
Since 1 July snowfall 0.0  
Snow Depth 0.00 in    
Sea Level Pressure  
Sea Level Pressure 30.06 in    
Wind  
Wind Speed 4 mph (SW)    
Max Wind Speed 17 mph    
Max Gust Speed 24 mph    
Visibility 9 miles    
Events Rain    
T = Trace of Precipitation, MM = Missing Value Source: NWS Daily Summary

Daily Weather History Graph

Daily Weather History Graph

Search for Another Location

Airport:

Trip Planner

Search our weather history database for the weather conditions in past years. The results will help you decide how hot, cold, wet, or windy it might be!

Date:

Astronomy

Dec. 07, 2013 Rise Set
Actual Time 6:43 AM PST 4:43 PM PST
Civil Twilight 6:15 AM PST 5:10 PM PST
Nautical Twilight 5:44 AM PST 5:41 PM PST
Astronomical Twilight 5:14 AM PST 6:11 PM PST
Moon 10:41 AM PST (12/7) 10:18 PM PST (12/7)
Length of Visible Light 10h 54m
Length of Day
9h 59m
Waxing Crescent, 30% of the Moon is Illuminated
Dec 7
Waxing Crescent
Dec 9
First Quarter
Dec 17
Full
Dec 25
Last Quarter
Jan 1
New

Hourly Weather History & Observations

Time (PST) Temp. Dew Point Humidity Pressure Visibility Wind Dir Wind Speed Gust Speed Precip Events Conditions
12:53 AM 50.0 °F 37.0 °F 61% 30.11 in 10.0 mi ESE 4.6 mph - N/A   Mostly Cloudy
1:53 AM 50.0 °F 37.0 °F 61% 30.11 in 10.0 mi East 3.5 mph - N/A   Scattered Clouds
2:53 AM 48.9 °F 37.9 °F 66% 30.09 in 10.0 mi Calm Calm - N/A   Overcast
3:53 AM 50.0 °F 37.9 °F 63% 30.07 in 10.0 mi Calm Calm - N/A   Overcast
4:53 AM 48.9 °F 37.9 °F 66% 30.08 in 10.0 mi Calm Calm - N/A   Mostly Cloudy
5:53 AM 48.9 °F 37.9 °F 66% 30.09 in 10.0 mi Calm Calm - N/A   Mostly Cloudy
6:53 AM 51.1 °F 39.0 °F 63% 30.10 in 10.0 mi Calm Calm - N/A   Mostly Cloudy
7:53 AM 53.1 °F 39.9 °F 61% 30.10 in 10.0 mi Calm Calm - N/A   Mostly Cloudy
8:53 AM 54.0 °F 42.1 °F 64% 30.11 in 10.0 mi SSW 3.5 mph - 0.00 in Rain Light Rain
9:48 AM 53.6 °F 44.6 °F 72% 30.10 in 7.0 mi SSE 3.5 mph - 0.01 in Rain Light Rain
9:53 AM 54.0 °F 45.0 °F 72% 30.10 in 7.0 mi SSE 3.5 mph - 0.01 in Rain Light Rain
10:53 AM 54.0 °F 50.0 °F 86% 30.09 in 5.0 mi SSW 6.9 mph - 0.05 in Rain Light Rain
11:09 AM 53.6 °F 50.0 °F 88% 30.08 in 2.5 mi SSW 8.1 mph - 0.02 in Rain Light Rain
11:22 AM 53.6 °F 51.8 °F 94% 30.07 in 4.0 mi South 9.2 mph - 0.05 in Rain Light Rain
11:53 AM 55.0 °F 51.1 °F 86% 30.04 in 7.0 mi South 9.2 mph - 0.06 in Rain Light Rain
12:40 PM 59.0 °F 48.2 °F 67% 30.02 in 10.0 mi WSW 16.1 mph 21.9 mph 0.00 in Rain Light Rain
12:53 PM 59.0 °F 48.9 °F 69% 30.01 in 10.0 mi WSW 11.5 mph 18.4 mph 0.00 in   Mostly Cloudy
1:06 PM 59.0 °F 48.2 °F 67% 30.01 in 7.0 mi WNW 11.5 mph 24.2 mph 0.00 in Rain Light Rain
1:38 PM 55.4 °F 51.8 °F 88% 30.01 in 10.0 mi West 3.5 mph - 0.02 in   Overcast
1:53 PM 57.0 °F 50.0 °F 77% 30.01 in 10.0 mi WNW 5.8 mph - 0.02 in   Overcast
2:53 PM 57.9 °F 46.9 °F 67% 30.01 in 10.0 mi West 11.5 mph 18.4 mph N/A   Mostly Cloudy
3:53 PM 57.9 °F 41.0 °F 53% 30.01 in 10.0 mi West 5.8 mph - N/A   Mostly Cloudy
4:53 PM 55.9 °F 37.9 °F 51% 30.02 in 10.0 mi West 3.5 mph - N/A   Scattered Clouds
5:53 PM 55.0 °F 36.0 °F 49% 30.04 in 10.0 mi WSW 6.9 mph - N/A   Scattered Clouds
6:53 PM 55.0 °F 39.0 °F 55% 30.06 in 10.0 mi West 8.1 mph - N/A   Mostly Cloudy
7:53 PM 55.0 °F 41.0 °F 59% 30.06 in 10.0 mi WSW 3.5 mph - N/A   Scattered Clouds
8:53 PM 51.1 °F 41.0 °F 68% 30.06 in 10.0 mi South 3.5 mph - N/A   Scattered Clouds
9:53 PM 50.0 °F 37.9 °F 63% 30.08 in 10.0 mi WNW 3.5 mph - N/A   Clear
10:53 PM 48.9 °F 33.1 °F 54% 30.10 in 10.0 mi Calm Calm - N/A   Clear
11:53 PM 46.9 °F 30.9 °F 54% 30.10 in 10.0 mi Calm Calm - N/A   Clear